Osceola Municipal, IA

8:13 AM CST on December 11, 2017 (GMT -0600)
Osceola Municipal

Weather History for KI75 - February, 2013

Change the Weather History Date:

Monday, February 18, 2013

  Actual Average (KCNC) Record (KCNC)
Temperature  
Mean Temperature 30 °F -  
Max Temperature 42 °F 39 °F 66 °F (1981)
Min Temperature 16 °F 18 °F -20 °F (1978)
Degree Days  
Heating Degree Days 36    
Moisture  
Dew Point 24 °F    
Average Humidity 69    
Maximum Humidity 85    
Minimum Humidity 61    
Precipitation  
Precipitation 0.00 in - - ()
Sea Level Pressure  
Sea Level Pressure 29.68 in    
Wind  
Wind Speed 15 mph (WNW)    
Max Wind Speed 28 mph    
Max Gust Speed 39 mph    
Visibility 10 miles    
Events Snow    
Averages and records for this station are not official NWS values.
T = Trace of Precipitation, MM = Missing Value Source: NWS Daily Summary

Daily Weather History Graph

Daily Weather History Graph

Search for Another Location

Airport or City:

Trip Planner

Search our weather history database for the weather conditions in past years. The results will help you decide how hot, cold, wet, or windy it might be!

Date:

Astronomy

Feb. 18, 2013 Rise Set
Actual Time 7:04 AM CST 5:53 PM CST
Civil Twilight 6:36 AM CST 6:21 PM CST
Nautical Twilight 6:04 AM CST 6:53 PM CST
Astronomical Twilight 5:32 AM CST 7:25 PM CST
Moon 11:38 AM CST (2/18) 1:46 AM CST (2/18)
Length of Visible Light 11h 44m
Length of Day
10h 48m
First Quarter, 58% of the Moon is Illuminated
Feb 18
First Quarter
Feb 25
Full
Mar 4
Last Quarter
Mar 11
New
Mar 19
First Quarter

Hourly Weather History & Observations

Time (CST) Temp. Windchill Dew Point Humidity Pressure Visibility Wind Dir Wind Speed Gust Speed Precip Events Conditions
12:15 AM 37.2 °F 29.6 °F 27.0 °F 66% 29.64 in 10.0 mi SSE 11.5 mph - N/A   Clear
12:35 AM 37.8 °F 30.7 °F 27.1 °F 66% 29.63 in 10.0 mi SE 10.4 mph - N/A   Clear
12:55 AM 37.8 °F 30.2 °F 27.3 °F 66% 29.63 in 10.0 mi SSE 11.5 mph - N/A   Clear
1:15 AM 38.5 °F 31.1 °F 27.5 °F 65% 29.62 in 10.0 mi SSE 11.5 mph - N/A   Clear
1:35 AM 39.2 °F 32.5 °F 28.0 °F 64% 29.61 in 10.0 mi SSE 10.4 mph - N/A   Clear
1:55 AM 39.7 °F 32.3 °F 28.4 °F 64% 29.60 in 10.0 mi SSE 12.7 mph - N/A   Clear
2:15 AM 41.0 °F 33.5 °F 28.6 °F 61% 29.59 in 10.0 mi SSE 13.8 mph - N/A   Clear
2:35 AM 40.1 °F 32.4 °F 28.8 °F 64% 29.59 in 10.0 mi SSE 13.8 mph - N/A   Clear
2:55 AM 39.9 °F 32.9 °F 28.9 °F 65% 29.58 in 10.0 mi SSE 11.5 mph - N/A   Clear
3:15 AM 40.1 °F 32.4 °F 28.9 °F 64% 29.57 in 10.0 mi SSE 13.8 mph - N/A   Clear
3:35 AM 40.6 °F 33.0 °F 28.9 °F 63% 29.57 in 10.0 mi South 13.8 mph - N/A   Clear
3:55 AM 40.1 °F 33.2 °F 28.9 °F 64% 29.56 in 10.0 mi South 11.5 mph - N/A   Clear
4:15 AM 39.4 °F 32.3 °F 28.9 °F 66% 29.55 in 10.0 mi South 11.5 mph - N/A   Clear
4:35 AM 39.2 °F 32.5 °F 29.1 °F 67% 29.55 in 10.0 mi South 10.4 mph - N/A   Clear
4:55 AM 38.8 °F 32.6 °F 29.1 °F 68% 29.56 in 10.0 mi South 9.2 mph - N/A   Clear
5:15 AM 38.8 °F 32.6 °F 29.3 °F 69% 29.56 in 10.0 mi South 9.2 mph - N/A   Clear
5:35 AM 39.2 °F 32.5 °F 29.7 °F 69% 29.56 in 10.0 mi South 10.4 mph - N/A   Clear
6:15 AM 39.6 °F 33.0 °F 29.7 °F 68% 29.54 in 10.0 mi South 10.4 mph - N/A   Clear
6:35 AM 38.8 °F 31.6 °F 29.8 °F 70% 29.55 in 10.0 mi South 11.5 mph - N/A   Clear
6:55 AM 39.2 °F 32.5 °F 30.0 °F 70% 29.54 in 10.0 mi South 10.4 mph - N/A   Clear
7:15 AM 38.8 °F 33.2 °F 30.0 °F 71% 29.55 in 10.0 mi South 8.1 mph - N/A   Clear
7:35 AM 37.4 °F 30.3 °F 29.8 °F 74% 29.56 in 10.0 mi WNW 10.4 mph - N/A   Clear
7:55 AM 37.0 °F 31.6 °F 29.8 °F 75% 29.57 in 10.0 mi WNW 6.9 mph - N/A   Clear
8:15 AM 37.4 °F 34.9 °F 30.2 °F 75% 29.58 in 10.0 mi West 3.5 mph - N/A   Clear
8:35 AM 37.8 °F 33.3 °F 30.2 °F 74% 29.58 in 10.0 mi West 5.8 mph - N/A   Clear
8:55 AM 38.7 °F 33.6 °F 30.2 °F 72% 29.58 in 10.0 mi West 6.9 mph - N/A   Clear
9:15 AM 39.6 °F 33.0 °F 30.2 °F 69% 29.58 in 10.0 mi WNW 10.4 mph - N/A   Clear
9:35 AM 40.1 °F 33.2 °F 30.7 °F 69% 29.59 in 10.0 mi NW 11.5 mph 18.4 mph N/A   Clear
9:55 AM 40.6 °F 32.7 °F 31.1 °F 69% 29.59 in 10.0 mi NW 15.0 mph - N/A   Clear
10:35 AM 42.1 °F 34.2 °F 32.0 °F 67% 29.60 in 10.0 mi NNW 16.1 mph 21.9 mph N/A   Scattered Clouds
10:55 AM 42.3 °F 34.1 °F 32.0 °F 67% 29.59 in 10.0 mi NNW 17.3 mph 24.2 mph N/A   Overcast
11:15 AM 41.4 °F 33.3 °F 32.0 °F 69% 29.60 in 10.0 mi NW 16.1 mph 20.7 mph N/A   Overcast
11:35 AM 40.3 °F 31.6 °F 31.5 °F 71% 29.62 in 10.0 mi NW 17.3 mph 23.0 mph N/A   Overcast
11:55 AM 40.1 °F 29.9 °F 31.3 °F 71% 29.63 in 10.0 mi NW 23.0 mph 26.5 mph N/A   Light Drizzle
12:15 PM 38.8 °F 29.7 °F 31.8 °F 76% 29.63 in 10.0 mi NW 17.3 mph 24.2 mph N/A   Light Drizzle
12:35 PM 37.9 °F 27.9 °F 31.5 °F 77% 29.63 in 10.0 mi NW 19.6 mph 28.8 mph N/A   Light Drizzle
12:55 PM 37.8 °F 27.1 °F 31.5 °F 78% 29.62 in 10.0 mi NW 21.9 mph 28.8 mph N/A   Overcast
1:15 PM 38.3 °F 27.8 °F 31.1 °F 75% 29.63 in 10.0 mi NW 21.9 mph 27.6 mph N/A   Overcast
1:35 PM 37.8 °F 28.3 °F 31.1 °F 77% 29.63 in 10.0 mi NW 17.3 mph 23.0 mph N/A   Overcast
1:55 PM 38.1 °F 28.4 °F 30.7 °F 75% 29.63 in 10.0 mi NW 18.4 mph 25.3 mph N/A   Overcast
2:15 PM 35.8 °F 24.5 °F 28.6 °F 75% 29.65 in 10.0 mi NW 21.9 mph 28.8 mph N/A   Overcast
2:35 PM 33.1 °F 19.6 °F 27.0 °F 78% 29.67 in 10.0 mi NW 27.6 mph 33.4 mph N/A   Overcast
2:55 PM 31.3 °F 17.9 °F 25.0 °F 77% 29.67 in 10.0 mi NW 24.2 mph 29.9 mph N/A   Overcast
3:15 PM 30.0 °F 16.6 °F 26.1 °F 85% 29.68 in 3.0 mi NW 23.0 mph 29.9 mph N/A Snow Light Snow
3:35 PM 29.3 °F 15.9 °F 24.1 °F 81% 29.69 in 5.0 mi NW 21.9 mph 32.2 mph N/A   Haze
3:55 PM 32.0 °F 19.5 °F 23.5 °F 71% 29.69 in 10.0 mi NW 21.9 mph 32.2 mph N/A   Overcast
4:15 PM 30.2 °F 17.4 °F 20.8 °F 68% 29.71 in 10.0 mi NW 20.7 mph 32.2 mph N/A   Overcast
4:35 PM 29.8 °F 16.3 °F 19.6 °F 66% 29.72 in 10.0 mi NW 23.0 mph 33.4 mph N/A   Overcast
4:55 PM 29.3 °F 17.0 °F 19.2 °F 66% 29.74 in 10.0 mi NW 18.4 mph 28.8 mph N/A   Overcast
5:15 PM 29.7 °F 16.1 °F 18.7 °F 64% 29.75 in 10.0 mi NW 23.0 mph 33.4 mph N/A   Overcast
5:35 PM 28.9 °F 15.8 °F 18.5 °F 65% 29.76 in 10.0 mi WNW 20.7 mph 25.3 mph N/A   Overcast
5:55 PM 28.4 °F 14.4 °F 17.8 °F 64% 29.77 in 10.0 mi NW 23.0 mph 31.1 mph N/A   Overcast
6:15 PM 27.5 °F 12.6 °F 17.4 °F 66% 29.79 in 10.0 mi WNW 25.3 mph 35.7 mph N/A   Overcast
6:35 PM 26.6 °F 12.7 °F 16.7 °F 66% 29.81 in 10.0 mi NW 20.7 mph 24.2 mph N/A   Mostly Cloudy
6:55 PM 25.3 °F 11.0 °F 15.3 °F 66% 29.82 in 10.0 mi WNW 20.7 mph 29.9 mph N/A   Mostly Cloudy
7:15 PM 24.8 °F 10.3 °F 14.5 °F 65% 29.83 in 10.0 mi WNW 20.7 mph 31.1 mph N/A   Mostly Cloudy
7:35 PM 24.3 °F 8.0 °F 13.1 °F 63% 29.85 in 10.0 mi NW 26.5 mph 33.4 mph N/A   Scattered Clouds
7:55 PM 23.5 °F 10.3 °F 13.3 °F 65% 29.86 in 10.0 mi WNW 16.1 mph 26.5 mph N/A   Scattered Clouds
8:15 PM 23.4 °F 7.1 °F 13.3 °F 65% 29.86 in 10.0 mi WNW 25.3 mph 29.9 mph N/A   Mostly Cloudy
8:35 PM 22.8 °F 7.7 °F 12.9 °F 66% 29.87 in 10.0 mi WNW 20.7 mph 26.5 mph N/A   Mostly Cloudy
8:55 PM 22.5 °F 6.9 °F 13.3 °F 68% 29.88 in 10.0 mi WNW 21.9 mph 26.5 mph N/A   Mostly Cloudy
9:15 PM 21.6 °F 4.3 °F 11.8 °F 66% 29.89 in 10.0 mi WNW 26.5 mph 39.1 mph N/A   Mostly Cloudy
9:35 PM 21.0 °F 5.0 °F 11.7 °F 67% 29.89 in 10.0 mi WNW 21.9 mph 27.6 mph N/A   Mostly Cloudy
9:55 PM 20.3 °F 5.2 °F 10.8 °F 67% 29.90 in 10.0 mi WNW 18.4 mph 25.3 mph N/A   Mostly Cloudy
10:15 PM 19.4 °F 2.5 °F 10.2 °F 68% 29.91 in 10.0 mi WNW 23.0 mph 31.1 mph N/A   Mostly Cloudy
10:35 PM 18.5 °F 2.0 °F 9.5 °F 68% 29.91 in 10.0 mi WNW 20.7 mph 29.9 mph N/A   Scattered Clouds
10:55 PM 18.1 °F 1.2 °F 9.3 °F 68% 29.91 in 10.0 mi WNW 21.9 mph 27.6 mph N/A   Clear
11:15 PM 17.4 °F 1.5 °F 8.6 °F 68% 29.92 in 10.0 mi West 18.4 mph 25.3 mph N/A   Clear
11:35 PM 17.1 °F 0.6 °F 8.6 °F 69% 29.93 in 10.0 mi WNW 19.6 mph 27.6 mph N/A   Clear
11:55 PM 16.7 °F -0.7 °F 8.8 °F 71% 29.94 in 10.0 mi West 21.9 mph 27.6 mph N/A   Clear